This is the latest recevied weather packets stored in our database for station/object KE8KMM. If no packets are shown the sender has not sent any weather packets the latest 10 day(s).
| Time | Temp. | Humidity | Pressure | Rain* | Wind** | Luminosity | Snow |
|---|---|---|---|---|---|---|---|
| 1777065438 | 27.78° C | 46% | 1004.9 hPa | 0 mm | - | 375 W/m² | - |
| 1777065132 | 28.33° C | 47% | 1005 hPa | 0 mm | - | 134 W/m² | - |
| 1777064831 | 27.78° C | 49% | 1005.1 hPa | 0 mm | - | 486 W/m² | - |
| 1777064526 | 27.78° C | 48% | 1005.1 hPa | 0 mm | - | 137 W/m² | - |
| 1777064223 | 27.22° C | 48% | 1005.1 hPa | 0 mm | - | 476 W/m² | - |
| 1777063917 | 27.22° C | 48% | 1005.4 hPa | 0 mm | - | 164 W/m² | - |
| 1777063612 | 27.78° C | 46% | 1005.4 hPa | 0 mm | - | 198 W/m² | - |
| 1777063308 | 28.33° C | 46% | 1005.4 hPa | 0 mm | - | 508 W/m² | - |
| 1777063005 | 27.78° C | 48% | 1005.5 hPa | 0 mm | - | 522 W/m² | - |
| 1777062702 | 27.78° C | 47% | 1005.2 hPa | 0 mm | - | 564 W/m² | - |
| 1777062400 | 28.33° C | 47% | 1005.5 hPa | 0 mm | - | 580 W/m² | - |
| 1777062097 | 27.78° C | 48% | 1005.4 hPa | 0 mm | - | 561 W/m² | - |
| 1777061793 | 27.22° C | 49% | 1005.4 hPa | 0 mm | - | 499 W/m² | - |
| 1777061490 | 28.33° C | 50% | 1005.5 hPa | 0 mm | - | 164 W/m² | - |
| 1777061187 | 28.33° C | 48% | 1005.6 hPa | 0 mm | - | 511 W/m² | - |
| 1777060887 | 27.78° C | 49% | 1005.7 hPa | 0 mm | - | 553 W/m² | - |
| 1777060581 | 28.33° C | 50% | 1005.9 hPa | 0 mm | - | 342 W/m² | - |
| 1777060278 | 28.33° C | 50% | 1005.8 hPa | 0 mm | - | 592 W/m² | - |
| 1777059974 | 27.22° C | 49% | 1006 hPa | 0 mm | - | 542 W/m² | - |
| 1777059670 | 27.22° C | 47% | 1005.9 hPa | 0 mm | - | 594 W/m² | - |
| 1777059367 | 27.78° C | 49% | 1006.2 hPa | 0 mm | - | 570 W/m² | - |
| 1777059063 | 26.67° C | 50% | 1006.3 hPa | 0 mm | - | 592 W/m² | - |
| 1777058763 | 27.22° C | 51% | 1006.1 hPa | 0 mm | - | 193 W/m² | - |
| 1777058459 | 27.78° C | 46% | 1006.3 hPa | 0 mm | - | 615 W/m² | - |
| 1777058156 | 27.78° C | 48% | 1006.2 hPa | 0 mm | - | 627 W/m² | - |
* Rain latest hour (hover to see other rain measurements)
** Current wind speed in m/s (hover to see current wind gust speed)